User: anonymous   Login
Location: Krishnamma Banjar
(17.2175°N, 80.5166°E)
Time: 18:02:44
(UTC+00:00)
Language:

Intelsat 5-3 Rocket - Orbit

View from above orbital plane
View from above orbital plane
View from above satellite
View from above satellite

Ground track
Ground track

The orbit data is extracted from the following two-line orbital elements,

1 13007U 81119B   24284.15908022  .00051904 -15903-5  21120-2 0  9999
2 13007  23.5238 301.6985 2709188 154.0047 222.6137  9.94719132126708
Epoch (UTC): 10 October 2024 03:49:04
Eccentricity: 0.2709188
inclination: 23.5238°
perigee height: 280 km
apogee height: 5229 km
right ascension of ascending node: 301.6985°
argument of perigee: 154.0047°
revolutions per day: 9.94719132
mean anomaly at epoch: 222.6137°
orbit number at epoch: 12670

The dashed part of the orbit path shows where the satellite is in the earth's shadow,  

DLR